Date,TemperatureHighF,TemperatureAvgF,TemperatureLowF,DewpointHighF,DewpointAvgF,DewpointLowF,HumidityHigh,HumidityAvg,HumidityLow,PressureMaxIn,PressureMinIn,WindSpeedMaxMPH,WindSpeedAvgMPH,GustSpeedMaxMPH,PrecipitationSumIn
2013-1-1,39.4,35.1,31.6,33.1,29.0,27.0,84,78,71,29.81,29.67,18,12,21,0.00
2013-1-2,41.7,38.8,35.2,36.0,31.7,29.3,87,76,64,30.24,29.73,23,12,25,0.00
2013-1-3,42.4,38.8,34.9,39.1,33.3,27.5,90,81,68,30.25,30.14,31,18,36,0.08
2013-1-4,48.9,45.7,42.4,46.8,42.0,37.7,98,87,69,30.27,30.05,30,14,33,0.21
2013-1-5,48.9,45.0,41.0,46.0,41.8,39.6,99,89,79,30.21,30.05,24,13,28,0.00
2013-1-6,44.1,41.9,39.9,41.8,40.0,38.3,99,93,84,30.19,30.00,27,10,27,0.08
2013-1-7,44.4,39.4,37.4,42.3,38.3,36.4,99,96,88,30.21,30.06,18,6,19,0.07
2013-1-8,41.2,39.4,37.4,40.6,38.7,37.1,99,97,94,30.18,30.03,12,6,14,0.07
2013-1-9,42.8,40.5,39.2,40.7,39.2,36.2,99,95,88,30.06,29.86,14,8,17,0.00
2013-1-10,39.2,37.2,35.6,37.0,32.9,29.7,95,85,74,29.87,29.65,24,14,25,0.11
2013-1-11,35.8,28.6,25.5,31.4,21.5,15.0,99,75,61,29.94,29.65,21,11,22,0.00
2013-1-12,31.6,25.8,21.4,20.4,16.7,13.4,79,68,55,30.00,29.92,14,7,16,0.00
2013-1-13,29.7,24.8,21.7,20.1,17.3,13.5,80,73,57,29.99,29.95,14,6,15,0.00
2013-1-14,30.6,25.7,22.3,27.2,22.0,19.3,90,85,77,29.96,29.82,11,5,14,0.00
2013-1-15,30.2,24.5,19.0,24.3,20.2,15.0,88,83,67,29.85,29.67,10,4,11,0.00
2013-1-16,28.2,26.0,25.2,25.0,22.5,20.8,92,86,78,29.70,29.65,10,4,11,0.00
2013-1-17,27.5,25.7,24.1,23.0,21.6,18.5,89,84,75,29.79,29.66,17,11,20,0.00
2013-1-18,23.9,21.5,19.9,21.4,17.8,15.9,90,86,80,29.79,29.60,14,8,14,0.00
2013-1-19,22.5,19.5,17.6,16.2,13.8,11.9,85,78,69,29.60,29.46,15,6,17,0.00
2013-1-20,25.5,22.6,19.6,23.8,19.1,14.7,93,86,81,29.48,29.38,15,9,17,0.00
2013-1-21,26.4,25.0,21.2,24.4,23.0,18.8,93,92,90,29.52,29.36,12,5,12,0.00
2013-1-22,23.5,20.0,17.8,18.8,15.0,13.0,91,81,70,29.69,29.52,10,5,10,0.00
2013-1-23,23.9,21.2,19.0,18.8,16.5,12.6,85,82,75,29.73,29.67,9,5,10,0.00
2013-1-24,24.6,22.5,20.1,20.5,18.5,15.0,87,84,80,29.89,29.70,14,6,14,0.00
2013-1-25,23.4,18.8,11.3,16.6,13.6,6.7,84,80,72,30.04,29.89,12,6,13,0.00
2013-1-26,18.0,11.7,3.0,11.5,5.7,-3.1,83,76,66,29.99,29.87,14,5,14,0.00
2013-1-27,30.0,24.0,14.9,28.3,19.8,10.2,98,83,75,29.89,29.65,15,8,16,0.00
2013-1-28,37.6,33.8,28.9,33.2,31.0,28.5,99,90,77,30.00,29.67,17,9,20,0.04
2013-1-29,42.1,38.4,34.2,39.7,35.2,30.5,95,88,77,29.99,29.81,26,16,31,0.04
2013-1-30,54.5,48.3,41.5,48.8,44.1,37.3,95,86,71,29.84,29.68,36,20,40,0.27
2013-1-31,46.6,43.8,41.0,39.5,33.3,28.1,83,67,50,29.95,29.74,37,20,45,0.02
2013-2-1,44.4,40.4,37.0,37.5,34.8,32.0,98,81,64,29.81,29.26,30,13,38,0.09
2013-2-2,38.7,36.6,30.6,38.4,31.9,19.1,99,84,61,29.70,29.16,24,11,27,0.09
2013-2-3,36.9,32.3,27.0,29.2,22.3,18.5,86,67,52,29.91,29.70,23,11,31,0.00
2013-2-4,41.0,35.9,31.5,37.5,32.9,29.4,99,89,78,29.75,29.66,30,18,35,0.00
2013-2-5,45.0,38.8,34.5,37.4,32.9,26.9,95,80,62,29.75,29.45,23,11,31,0.00
2013-2-6,41.4,34.0,28.4,28.9,23.0,16.7,86,65,43,29.56,29.44,17,6,17,0.00
2013-2-7,38.7,30.9,27.1,29.8,25.1,20.0,95,79,61,29.77,29.55,16,5,17,0.00
2013-2-8,39.4,30.1,26.6,26.4,23.2,16.4,91,76,45,29.88,29.76,14,6,14,0.00
2013-2-9,32.4,28.6,26.6,25.3,21.5,16.7,88,75,62,29.99,29.87,11,6,11,0.00
2013-2-10,33.8,27.9,25.7,22.7,18.1,12.6,84,67,52,29.97,29.83,12,5,13,0.00
2013-2-11,27.9,26.0,22.3,19.7,17.0,15.2,80,69,61,29.83,29.68,19,9,21,0.00
2013-2-12,27.7,27.0,25.9,25.8,22.9,19.5,93,85,72,29.85,29.65,19,9,20,0.00
2013-2-13,30.2,28.0,26.6,26.2,24.0,21.0,94,85,75,30.21,29.85,15,7,15,0.00
2013-2-14,32.7,28.7,26.6,26.0,24.2,21.9,88,83,75,30.22,30.02,11,5,12,0.00
2013-2-15,35.2,31.3,28.8,30.6,27.8,25.7,96,87,77,30.09,29.97,7,3,8,0.00
2013-2-16,36.5,32.2,29.1,31.2,28.9,27.3,97,88,75,30.18,30.10,6,2,6,0.05
2013-2-17,35.1,32.0,28.9,31.0,28.8,24.8,98,88,73,30.19,30.15,7,2,8,0.01
2013-2-18,36.0,32.1,30.4,30.3,27.8,25.5,95,84,73,30.16,30.03,5,2,8,0.00
2013-2-19,32.2,30.7,27.9,31.8,27.7,22.8,99,89,70,30.03,29.75,21,11,23,0.00
2013-2-20,30.4,27.5,24.3,25.8,22.5,18.9,91,82,64,30.05,29.89,18,10,21,0.00
2013-2-21,35.6,23.7,21.2,22.9,17.8,11.6,92,79,49,30.06,29.98,12,6,14,0.01
2013-2-22,23.9,21.3,17.6,21.9,16.3,9.9,92,81,70,29.98,29.75,21,13,22,0.00
2013-2-23,29.5,25.5,21.9,28.2,23.4,19.6,95,92,90,29.78,29.63,16,8,18,0.00
2013-2-24,40.3,31.9,27.0,33.2,29.5,25.2,99,91,70,29.90,29.69,9,5,9,0.13
2013-2-25,38.8,37.1,33.3,38.6,36.8,33.0,99,99,97,30.21,29.87,9,7,11,0.09
2013-2-26,38.8,36.0,33.6,38.6,35.2,32.3,99,97,95,30.30,30.20,13,6,15,0.00
2013-2-27,33.6,33.6,33.6,32.3,32.3,32.3,95,95,95,30.35,30.30,13,13,13,0.00
2013-2-28,37.4,35.4,33.6,32.3,30.4,28.9,95,82,72,30.35,30.16,13,6,13,0.01
2013-3-1,36.3,33.7,32.7,30.3,28.2,24.5,89,80,64,30.18,30.09,15,8,17,0.00
2013-3-2,43.3,34.6,28.4,28.1,23.8,20.3,85,66,43,30.21,30.08,11,6,12,0.00
2013-3-3,37.8,32.8,27.7,28.5,23.7,18.9,78,69,61,30.18,30.03,15,8,16,0.00
2013-3-4,45.9,36.9,29.7,28.3,24.2,19.4,83,61,44,30.25,30.16,11,5,12,0.00
2013-3-5,49.5,37.6,26.4,31.5,26.6,20.1,82,65,45,30.16,29.87,13,7,16,0.00
2013-3-6,53.1,42.5,30.0,38.3,31.3,25.0,85,65,48,29.87,29.66,11,5,12,0.00
2013-3-7,51.1,42.8,35.6,43.6,39.5,34.1,99,88,67,29.66,29.60,8,3,8,0.00
2013-3-8,45.9,42.9,39.9,45.1,42.4,39.7,99,98,94,29.67,29.64,13,6,14,0.00
2013-3-9,40.6,39.3,37.2,40.4,39.1,36.5,99,99,97,29.66,29.59,11,4,12,0.05
2013-3-10,55.9,45.4,39.7,49.2,40.6,35.2,99,85,47,29.59,29.47,17,6,17,0.00
2013-3-11,43.7,29.8,25.2,41.8,25.9,20.0,99,85,75,29.64,29.47,14,9,17,0.04
2013-3-12,28.6,26.1,24.4,24.9,22.0,19.5,89,84,80,29.62,29.45,14,9,15,0.00
2013-3-13,27.1,24.5,22.6,23.0,18.8,14.7,93,79,65,29.63,29.44,14,8,14,0.00
2013-3-14,30.0,24.8,20.3,16.4,13.3,10.1,79,62,46,29.73,29.64,21,11,22,0.00
2013-3-15,30.9,25.0,20.5,17.3,14.3,8.0,85,64,42,29.98,29.71,19,10,21,0.00
2013-3-16,40.8,28.4,17.2,18.5,12.1,1.9,79,54,22,30.06,29.96,10,5,12,0.00
2013-3-17,40.5,31.7,23.5,22.3,16.0,9.8,66,52,41,29.95,29.62,27,16,32,0.01
2013-3-18,40.6,32.3,27.5,31.8,25.8,19.4,99,78,59,29.62,29.22,17,8,21,0.00
2013-3-19,41.0,34.7,30.2,34.0,31.4,29.3,99,88,72,29.55,29.21,21,9,24,0.14
2013-3-20,50.2,40.9,33.1,37.8,32.7,28.8,93,73,53,29.79,29.55,20,7,21,0.02
2013-3-21,38.5,34.1,28.0,36.4,27.1,20.1,94,76,61,30.02,29.78,20,10,22,0.01
2013-3-22,31.3,28.5,26.6,23.5,19.5,15.9,83,69,56,30.04,29.99,19,10,21,0.00
2013-3-23,28.8,24.1,16.5,19.0,10.9,1.1,71,57,43,30.07,30.01,25,18,29,0.00
2013-3-24,32.7,22.6,14.4,11.8,3.3,-4.4,62,44,24,30.06,29.94,31,18,33,0.00
2013-3-25,28.8,24.5,21.2,16.0,10.7,7.8,73,56,43,29.95,29.78,34,20,34,0.00
2013-3-26,30.9,26.7,23.4,9.0,5.3,-1.2,53,40,25,29.80,29.72,31,19,36,0.00
2013-3-27,29.3,26.2,22.6,22.6,16.7,7.3,81,67,46,29.83,29.75,21,10,22,0.00
2013-3-28,41.0,32.1,26.8,26.6,23.6,20.0,83,71,53,29.82,29.72,21,8,23,0.00
2013-3-29,42.4,35.3,30.6,32.5,25.1,18.9,96,68,45,29.72,29.62,24,9,28,0.04
2013-3-30,46.0,35.9,29.5,28.1,24.1,20.9,84,63,38,29.71,29.66,19,7,21,0.00
2013-3-31,35.2,31.7,29.3,28.0,24.6,21.2,90,75,58,29.74,29.67,20,10,24,0.00
2013-4-1,36.1,31.3,27.9,26.4,22.2,16.7,88,69,47,29.85,29.73,16,7,18,0.00
2013-4-2,37.4,32.1,27.7,26.5,22.7,19.4,88,69,52,29.87,29.80,24,13,26,0.00
2013-4-3,36.3,32.3,29.8,24.8,22.5,20.7,77,67,53,29.90,29.86,17,10,19,0.00
2013-4-4,37.9,33.1,29.5,28.4,26.1,24.5,86,76,62,29.88,29.81,10,6,12,0.00
2013-4-5,36.7,33.7,31.1,29.5,28.8,28.1,91,82,73,29.81,29.68,16,10,17,0.00
2013-4-6,38.3,35.1,33.1,31.4,29.5,28.3,88,80,70,30.07,29.80,14,8,14,0.00
2013-4-7,39.2,35.0,32.4,30.0,28.0,24.3,87,76,57,30.09,30.01,13,5,14,0.00
2013-4-8,48.7,39.2,26.2,31.8,22.9,14.0,89,56,27,30.01,29.73,17,8,23,0.00
2013-4-9,52.3,42.7,36.1,40.4,32.5,26.0,95,68,51,29.73,29.67,18,6,23,0.04
2013-4-10,52.2,44.8,37.8,41.9,39.5,36.5,99,83,61,29.85,29.66,24,10,28,0.02
2013-4-11,59.2,49.2,41.2,46.7,40.9,36.9,85,74,52,29.85,29.66,25,11,28,0.00
2013-4-12,56.3,51.3,45.7,50.0,44.3,38.3,99,78,57,29.83,29.58,35,13,40,0.18
2013-4-13,59.0,50.5,44.4,42.2,38.1,32.3,82,64,38,30.27,29.83,27,14,30,0.00
2013-4-14,65.7,52.6,39.6,42.7,38.2,33.6,86,60,34,30.38,30.28,11,6,14,0.00
2013-4-15,68.5,57.7,45.3,43.3,39.1,34.7,79,53,29,30.35,30.23,17,8,21,0.00
2013-4-16,71.6,60.0,49.3,49.9,42.5,35.9,74,54,34,30.26,30.19,14,6,17,0.00
2013-4-17,71.4,62.1,52.7,55.9,51.0,46.9,95,69,44,30.33,30.23,9,5,10,0.00
2013-4-18,79.0,65.1,50.9,54.2,51.1,48.7,95,64,35,30.23,30.07,16,9,21,0.00
2013-4-19,64.6,56.0,47.8,56.4,45.6,36.3,99,70,43,30.28,30.11,14,6,16,0.13
2013-4-20,50.0,46.7,43.3,46.9,43.8,42.0,99,90,75,30.32,30.25,21,12,24,0.06
2013-4-21,68.2,53.4,40.8,52.1,46.3,40.6,99,79,46,30.26,30.00,22,10,22,0.00
2013-4-22,70.7,58.2,45.5,54.4,50.5,44.7,99,77,50,30.09,29.98,14,6,14,0.00
2013-4-23,65.7,58.0,49.8,51.1,46.9,42.9,97,69,45,30.29,30.10,23,9,25,0.00
2013-4-24,71.2,60.6,47.3,46.8,43.4,40.9,85,55,35,30.43,30.29,14,6,18,0.00
2013-4-25,78.3,64.9,51.3,50.3,47.3,42.4,85,56,28,30.41,30.22,12,6,14,0.00
2013-4-26,79.2,67.7,52.9,53.4,47.8,41.1,82,52,26,30.21,29.70,16,8,21,0.00
2013-4-27,66.0,58.3,46.8,56.7,52.8,46.5,99,83,65,29.80,29.69,26,10,27,0.21
2013-4-28,52.9,46.0,41.7,46.7,43.7,41.5,99,92,74,30.07,29.74,17,8,21,0.04
2013-4-29,56.1,50.8,46.2,50.6,48.5,45.4,99,92,79,30.19,30.01,14,5,15,0.00
2013-4-30,60.4,53.8,47.1,53.7,49.7,46.9,99,87,74,30.19,30.10,21,9,26,0.01
2013-5-1,56.3,50.3,46.6,52.3,48.8,46.3,99,95,85,30.26,30.12,17,10,17,0.00
2013-5-2,61.9,51.9,47.1,57.7,50.9,46.9,99,97,84,30.19,30.04,20,7,20,0.21
2013-5-3,52.5,51.3,49.1,51.4,50.5,47.7,99,97,90,30.04,29.97,14,8,15,0.06
2013-5-4,66.6,53.4,46.0,56.3,49.8,45.2,99,89,62,30.17,30.02,24,5,26,0.44
2013-5-5,66.0,56.1,48.7,56.3,52.5,48.5,99,89,62,30.29,30.16,14,6,15,0.01
2013-5-6,65.3,57.2,49.3,61.5,55.7,49.0,99,95,86,30.26,30.07,21,8,21,0.02
2013-5-7,71.4,63.0,55.4,61.4,58.6,55.1,99,87,67,30.08,30.02,24,10,27,0.01
2013-5-8,75.0,65.1,55.2,61.3,58.1,54.4,99,80,54,30.08,30.02,19,6,19,0.00
2013-5-9,77.4,66.4,55.4,62.0,57.4,53.2,99,75,48,30.10,30.00,11,6,14,0.02
2013-5-10,63.1,56.9,52.5,58.6,55.8,52.0,99,96,74,30.07,29.94,14,6,17,0.58
2013-5-11,57.6,53.5,50.9,54.4,50.7,46.6,99,90,69,30.07,30.00,8,4,10,0.06
2013-5-12,65.3,54.5,46.6,51.0,46.6,41.4,99,77,46,30.10,29.94,25,9,29,0.00
2013-5-13,57.2,49.1,41.9,48.5,42.6,37.9,96,79,51,30.14,30.03,22,11,30,0.00
2013-5-14,66.6,57.2,49.1,50.2,46.4,41.7,97,70,42,30.03,29.90,14,6,20,0.00
2013-5-15,71.6,61.9,49.5,54.5,50.3,45.5,87,67,48,29.90,29.70,27,12,29,0.00
2013-5-16,73.4,65.0,52.9,55.0,51.9,46.8,92,64,41,29.71,29.58,34,15,44,0.04
2013-5-17,74.7,64.5,56.8,58.8,55.4,51.3,94,73,55,29.67,29.58,31,13,35,0.00
2013-5-18,71.1,60.1,53.2,57.3,52.7,48.1,99,78,46,29.95,29.65,24,9,26,0.31
2013-5-19,77.0,62.3,49.3,58.7,53.9,49.0,99,77,46,29.92,29.74,26,9,34,0.09
2013-5-20,67.8,57.8,48.7,53.7,46.3,40.9,99,68,39,30.00,29.87,18,9,24,0.00
2013-5-21,65.8,57.3,49.3,48.4,45.7,42.1,90,67,45,30.00,29.89,17,6,22,0.00
2013-5-22,61.5,51.6,44.2,51.3,47.2,42.1,99,86,60,29.90,29.75,26,10,30,0.13
2013-5-23,55.9,48.1,42.3,43.2,39.2,35.2,96,73,49,29.91,29.78,19,4,19,0.00
2013-5-24,54.7,46.1,37.2,45.6,42.3,36.5,99,87,61,29.89,29.77,14,7,15,0.04
2013-5-25,54.1,46.0,41.5,47.0,43.8,41.2,99,92,71,29.89,29.83,20,6,20,0.18
2013-5-26,48.2,44.2,41.5,43.8,42.3,40.6,99,93,79,29.83,29.67,27,14,30,0.19
2013-5-27,53.6,48.0,41.9,48.7,46.1,41.6,99,93,82,29.83,29.62,24,12,24,0.22
2013-5-28,65.5,54.6,43.5,53.9,47.5,43.0,99,79,47,29.82,29.63,16,8,17,0.00
2013-5-29,67.6,56.9,46.9,57.4,52.0,46.7,99,84,62,29.73,29.57,21,7,21,0.04
2013-5-30,51.1,49.3,47.5,50.1,48.9,47.2,99,99,93,29.73,29.50,16,9,19,0.57
2013-5-31,59.4,52.8,48.9,52.8,49.9,46.5,99,91,67,29.73,29.47,21,6,21,0.15
2013-6-1,56.7,50.2,44.6,56.4,49.8,43.8,99,98,93,29.78,29.69,19,8,24,0.51
2013-6-2,56.7,51.0,47.8,56.4,50.5,47.5,99,98,94,30.07,29.72,31,13,31,0.99
2013-6-3,49.3,47.4,45.9,49.0,47.0,45.1,99,99,97,30.14,30.07,20,9,20,0.45
2013-6-4,59.9,53.7,48.7,53.5,50.5,48.4,99,89,73,30.12,30.07,16,9,19,0.02
2013-6-5,64.9,56.9,47.7,53.6,48.1,41.5,98,74,47,30.19,30.10,18,9,23,0.00
2013-6-6,66.6,58.8,52.5,56.0,53.3,50.4,98,83,65,30.24,30.17,14,6,14,0.00
2013-6-7,74.5,63.1,51.4,60.2,56.3,51.2,99,80,56,30.25,30.17,14,5,17,0.00
2013-6-8,78.6,67.7,55.8,61.7,58.8,55.5,99,75,48,30.19,30.01,13,5,19,0.00
2013-6-9,79.0,65.7,57.0,64.8,59.4,54.6,99,82,43,30.01,29.83,27,6,29,0.07
2013-6-10,61.7,58.3,56.3,60.6,57.6,54.7,99,98,87,29.94,29.81,16,6,17,0.21
2013-6-11,69.4,62.0,53.1,55.1,48.9,41.6,97,65,37,30.16,29.95,21,9,26,0.00
2013-6-12,57.9,55.3,52.3,49.9,49.1,48.5,88,80,72,30.17,30.16,4,4,5,0.00
2013-6-24,54.9,54.0,53.6,54.0,53.2,52.8,97,97,97,30.15,30.14,8,3,12,0.33
2013-6-25,54.7,53.2,50.4,53.9,52.4,50.1,99,97,94,30.22,30.08,25,13,25,0.96
2013-6-26,54.3,51.0,48.9,51.0,48.5,45.7,99,92,75,30.32,30.19,22,10,23,0.11
2013-6-27,63.5,55.3,48.7,52.0,47.1,40.4,96,76,44,30.32,30.25,9,4,11,0.00
2013-6-28,67.6,58.4,46.2,52.0,47.4,39.7,99,70,38,30.26,30.17,13,5,15,0.00
2013-6-29,66.6,58.7,50.0,55.3,51.4,48.8,97,78,53,30.19,30.08,15,8,20,0.00
2013-6-30,64.0,56.8,50.2,55.8,46.3,40.1,99,70,46,30.27,30.16,19,9,21,0.04
2013-7-1,75.7,64.8,53.6,53.5,49.7,45.5,83,60,38,30.22,30.15,14,6,16,0.00
2013-7-2,82.9,70.2,56.5,59.0,53.9,51.1,86,58,37,30.15,30.07,15,6,15,0.00
2013-7-3,76.8,66.9,59.7,66.5,61.0,55.3,99,82,61,30.11,30.01,21,7,25,0.05
2013-7-4,76.3,68.0,60.6,64.5,61.5,59.6,99,81,58,30.33,30.09,12,5,14,0.14
2013-7-5,75.6,67.2,60.3,65.6,62.2,60.0,99,85,59,30.46,30.33,15,6,19,0.00
2013-7-6,75.4,67.1,59.7,65.2,62.0,59.5,99,84,68,30.48,30.42,13,6,15,0.06
2013-7-7,76.8,69.1,59.0,62.3,57.6,52.1,99,69,44,30.50,30.45,13,6,18,0.00
2013-7-8,77.0,68.7,59.4,60.0,56.6,53.2,93,67,45,30.50,30.43,17,6,17,0.00
2013-7-9,76.1,67.1,57.6,61.0,58.0,55.4,99,74,51,30.45,30.35,14,5,16,0.00
2013-7-10,79.0,70.7,60.1,60.9,58.1,55.0,95,67,44,29.81,29.64,21,8,21,0.00
2013-7-11,63.7,59.9,54.7,56.6,52.5,50.5,89,77,64,29.74,29.67,16,8,16,0.00
2013-7-12,70.3,62.4,55.2,56.9,53.0,51.0,91,73,52,29.79,29.72,15,8,15,0.00
2013-7-13,73.4,66.8,53.8,55.9,52.5,48.6,96,62,43,29.81,29.77,17,8,21,0.00
2013-7-14,75.6,66.1,55.6,59.2,54.7,50.8,90,68,45,29.82,29.78,15,7,17,0.00
2013-7-15,70.5,64.3,57.4,58.9,53.4,46.9,96,70,44,29.89,29.78,19,8,21,0.00
2013-7-16,80.6,67.4,53.6,56.0,52.1,47.9,93,62,33,29.93,29.87,10,5,11,0.00
2013-7-17,81.3,71.0,57.0,59.5,55.4,50.0,95,60,35,29.91,29.86,13,5,16,0.00
2013-7-18,81.5,72.3,60.1,60.7,56.4,50.5,85,59,35,29.91,29.84,12,5,20,0.00
2013-7-19,82.0,73.5,62.1,61.9,57.9,53.2,91,61,38,29.87,29.76,18,6,29,0.00
2013-7-20,77.9,69.6,61.0,61.0,56.5,52.4,85,65,43,29.84,29.78,21,6,21,0.00
2013-7-21,81.7,71.5,58.5,60.2,54.6,49.8,93,58,34,29.92,29.84,11,4,16,0.00
2013-7-22,87.4,74.2,58.6,57.2,52.5,46.0,90,51,26,29.84,29.70,10,5,14,0.00
2013-7-23,87.1,75.7,58.8,60.1,53.0,44.8,88,49,24,29.71,29.65,13,6,16,0.00
2013-7-24,88.3,76.2,60.4,62.4,54.1,47.0,77,49,25,29.73,29.64,13,4,13,0.00
2013-7-25,82.8,72.2,65.1,66.0,64.1,61.2,99,78,49,29.75,29.71,12,5,14,0.02
2013-7-26,90.0,78.4,64.2,68.1,62.7,58.1,97,62,35,29.76,29.67,9,4,10,0.00
2013-7-27,95.9,82.2,65.8,66.3,62.5,56.1,95,55,31,29.68,29.57,13,5,14,0.00
2013-7-28,97.7,85.6,71.6,67.1,63.3,59.5,74,49,29,29.69,29.56,14,7,14,0.00
2013-7-29,85.8,77.5,68.7,70.1,66.6,62.0,99,71,49,29.71,29.50,23,10,24,0.01
2013-8-11,61.7,60.2,58.6,53.2,50.9,49.6,82,72,66,29.95,29.94,4,2,5,0.00
2013-8-12,78.4,66.1,53.1,59.0,53.0,47.2,98,67,36,29.99,29.79,11,6,12,0.00
2013-8-13,70.5,64.0,57.6,59.3,52.6,40.2,96,69,34,29.97,29.77,20,8,21,0.01
2013-8-21,64.0,61.5,58.3,52.2,50.9,50.2,78,68,61,30.09,30.07,7,3,7,0.01
2013-8-22,73.9,61.8,48.6,57.6,52.3,48.3,99,73,43,30.07,29.98,8,4,11,0.00
2013-8-23,72.1,62.9,50.7,57.7,53.1,50.0,99,73,47,29.99,29.91,16,7,18,0.00
2013-8-24,74.7,64.6,54.3,59.1,55.7,53.4,98,75,49,29.93,29.77,19,6,20,0.00
2013-8-25,63.5,59.7,56.7,59.5,57.0,54.3,99,91,74,29.78,29.70,21,9,22,0.39
2013-8-26,62.2,58.1,56.3,59.3,56.9,53.7,99,96,76,29.84,29.73,14,7,17,0.33
2013-8-27,61.2,57.0,54.9,56.6,55.2,52.9,99,94,76,29.83,29.78,15,6,15,0.13
2013-8-28,68.5,59.2,54.0,60.3,56.5,53.1,99,91,65,29.93,29.76,14,4,18,0.22
2013-8-29,76.1,62.3,51.6,57.5,54.0,48.7,99,77,38,30.06,29.93,18,5,22,0.01
2013-8-30,78.3,64.6,51.8,57.9,53.2,47.5,98,71,34,30.03,29.95,9,5,11,0.00
2013-8-31,76.3,66.7,56.7,58.0,55.0,50.6,92,68,41,29.97,29.91,21,8,22,0.00
2013-9-1,63.5,58.3,51.8,59.5,49.2,40.2,99,74,44,30.07,29.96,17,8,19,0.27
2013-9-2,63.3,56.4,50.0,55.2,49.9,46.2,95,79,61,30.07,29.96,28,11,28,0.00
2013-9-3,65.5,63.1,60.1,61.0,58.9,55.2,95,86,82,30.15,29.94,23,11,24,0.00
2013-9-4,71.1,65.2,59.9,64.2,61.8,59.6,99,89,77,30.15,30.03,6,4,7,0.00
2013-9-5,67.5,67.5,67.5,62.5,62.5,62.5,84,84,84,30.04,29.89,4,4,4,0.00
2013-9-6,67.5,67.5,67.5,62.5,62.5,62.5,84,84,84,29.88,29.83,4,4,4,0.00
2013-9-7,67.5,67.5,67.5,62.5,62.5,62.5,84,84,84,29.98,29.86,4,4,4,0.00
2013-9-8,67.5,67.5,67.5,62.5,62.5,62.5,84,84,84,29.97,29.86,4,4,4,0.00
2013-9-9,67.5,67.5,67.5,62.5,62.5,62.5,84,84,84,29.95,29.72,4,4,4,0.00
2013-9-10,67.5,67.5,67.5,62.5,62.5,62.5,84,84,84,29.93,29.76,4,4,4,0.00
2013-9-11,67.5,67.5,67.5,62.5,62.5,62.5,84,84,84,29.83,29.75,4,4,4,0.00